| time (UTC) | temp F | wind direction | speed MPH | gust MPH | rain 1hr in | rain 24hr in | rain mn in | humidity % | barometer mb |
| 20260507070038 | 48 | 0 | 0.0 | 3.0 | 0.00 | 0.40 | 0.00 | 89 | 1009.2 |
| 20260507065521 | 48 | 292 | 0.0 | 2.0 | 0.00 | 0.40 | 0.00 | 88 | 1009.0 |
| 20260507065022 | 48 | 0 | 0.0 | 2.0 | 0.00 | 0.40 | 0.00 | 89 | 1008.7 |
| 20260507064538 | 48 | 287 | 0.0 | 3.0 | 0.00 | 0.40 | 0.00 | 89 | 1008.6 |
| 20260507064023 | 48 | 0 | 1.0 | 3.0 | 0.00 | 0.40 | 0.00 | 89 | 1008.7 |
| 20260507063521 | 48 | 0 | 1.0 | 3.0 | 0.00 | 0.40 | 0.00 | 89 | 1008.8 |
| 20260507063048 | 48 | 276 | 1.0 | 3.0 | 0.00 | 0.40 | 0.00 | 89 | 1008.6 |
| 20260507062523 | 48 | 312 | 0.0 | 2.0 | 0.00 | 0.40 | 0.00 | 90 | 1008.4 |
| 20260507062021 | 48 | 291 | 0.0 | 2.0 | 0.00 | 0.40 | 0.00 | 90 | 1008.6 |
| 20260507061543 | 48 | 310 | 1.0 | 2.0 | 0.00 | 0.40 | 0.00 | 90 | 1008.6 |
| 20260507061022 | 48 | 293 | 0.0 | 2.0 | 0.00 | 0.40 | 0.00 | 91 | 1008.5 |
| 20260507060522 | 48 | 0 | 0.0 | 1.0 | 0.00 | 0.40 | 0.00 | 91 | 1008.6 |
| 20260507060040 | 49 | 0 | 0.0 | 1.0 | 0.00 | 0.40 | 0.00 | 91 | 1008.8 |
| 20260507055521 | 49 | 309 | 0.0 | 1.0 | 0.00 | 0.40 | 0.00 | 91 | 1008.9 |
| 20260507055025 | 49 | 0 | 0.0 | 1.0 | 0.00 | 0.40 | 0.00 | 92 | 1008.8 |
| 20260507054540 | 49 | 0 | 0.0 | 1.0 | 0.00 | 0.40 | 0.00 | 92 | 1009.0 |
| 20260507054022 | 49 | 0 | 0.0 | 3.0 | 0.00 | 0.40 | 0.00 | 92 | 1008.9 |
| 20260507053523 | 49 | 304 | 0.0 | 3.0 | 0.00 | 0.40 | 0.00 | 92 | 1009.1 |
| 20260507053038 | 49 | 283 | 0.0 | 3.0 | 0.00 | 0.40 | 0.00 | 92 | 1009.0 |
| 20260507052522 | 49 | 319 | 0.0 | 1.0 | 0.00 | 0.40 | 0.00 | 93 | 1008.9 |
| 20260507052024 | 50 | 0 | 0.0 | 1.0 | 0.00 | 0.40 | 0.00 | 93 | 1009.0 |
| 20260507051538 | 50 | 300 | 0.0 | 1.0 | 0.00 | 0.40 | 0.00 | 93 | 1009.0 |
| 20260507051022 | 50 | 328 | 0.0 | 1.0 | 0.00 | 0.40 | 0.00 | 93 | 1008.9 |
| 20260507050521 | 50 | 0 | 0.0 | 1.0 | 0.00 | 0.40 | 0.00 | 93 | 1008.8 |
| 20260507050046 | 50 | 0 | 0.0 | 1.0 | 0.00 | 0.40 | 0.00 | 93 | 1008.7 |
| 20260507045521 | 50 | 307 | 0.0 | 1.0 | 0.00 | 0.40 | 0.00 | 93 | 1008.7 |
| 20260507045020 | 50 | 307 | 0.0 | 1.0 | 0.00 | 0.40 | 0.00 | 93 | 1008.7 |
| 20260507044543 | 50 | 0 | 0.0 | 3.0 | 0.00 | 0.40 | 0.00 | 93 | 1008.8 |
| 20260507044024 | 50 | 0 | 0.0 | 3.0 | 0.00 | 0.40 | 0.00 | 93 | 1009.0 |
| 20260507043523 | 50 | 0 | 0.0 | 3.0 | 0.00 | 0.40 | 0.00 | 93 | 1009.0 |
| 20260507043038 | 51 | 0 | 0.0 | 4.0 | 0.00 | 0.40 | 0.00 | 93 | 1008.9 |
| 20260507042523 | 51 | 0 | 1.0 | 4.0 | 0.00 | 0.40 | 0.00 | 93 | 1008.9 |
| 20260507042022 | 51 | 307 | 0.0 | 2.0 | 0.00 | 0.40 | 0.00 | 93 | 1009.0 |
| 20260507041539 | 51 | 280 | 0.0 | 3.0 | 0.00 | 0.40 | 0.00 | 93 | 1009.0 |
| 20260507041021 | 51 | 321 | 1.0 | 3.0 | 0.00 | 0.40 | 0.00 | 92 | 1009.0 |
| 20260507040523 | 51 | 281 | 1.0 | 3.0 | 0.00 | 0.40 | 0.00 | 93 | 1008.7 |
| 20260507040042 | 51 | 0 | 0.0 | 3.0 | 0.00 | 0.40 | 0.00 | 94 | 1008.4 |
| 20260507035522 | 51 | 0 | 0.0 | 3.0 | 0.00 | 0.40 | 0.40 | 94 | 1008.5 |
| 20260507035022 | 52 | 0 | 0.0 | 2.0 | 0.00 | 0.40 | 0.40 | 94 | 1008.5 |
| 20260507034549 | 52 | 0 | 0.0 | 5.0 | 0.00 | 0.40 | 0.40 | 93 | 1008.3 |
| 20260507034023 | 52 | 301 | 0.0 | 5.0 | 0.00 | 0.40 | 0.40 | 93 | 1008.2 |
| 20260507033523 | 52 | 0 | 0.0 | 2.0 | 0.00 | 0.40 | 0.40 | 93 | 1008.2 |
| 20260507033040 | 52 | 281 | 0.0 | 3.0 | 0.00 | 0.40 | 0.40 | 92 | 1008.2 |
| 20260507032523 | 52 | 294 | 0.0 | 3.0 | 0.00 | 0.40 | 0.40 | 92 | 1008.3 |
| 20260507032023 | 53 | 298 | 1.0 | 3.0 | 0.00 | 0.40 | 0.40 | 92 | 1008.1 |
| 20260507031538 | 53 | 330 | 1.0 | 3.0 | 0.00 | 0.40 | 0.40 | 92 | 1008.1 |
| 20260507031022 | 54 | 0 | 1.0 | 6.0 | 0.00 | 0.40 | 0.40 | 92 | 1008.2 |
| 20260507030523 | 55 | 285 | 0.0 | 6.0 | 0.00 | 0.40 | 0.40 | 93 | 1008.2 |
| 20260507030038 | 55 | 291 | 0.0 | 6.0 | 0.00 | 0.40 | 0.40 | 93 | 1008.2 |
| 20260507025522 | 56 | 308 | 0.0 | 5.0 | 0.00 | 0.40 | 0.40 | 94 | 1008.1 |
| 20260507025023 | 57 | 0 | 0.0 | 5.0 | 0.00 | 0.40 | 0.40 | 94 | 1008.0 |
| 20260507024543 | 57 | 331 | 1.0 | 5.0 | 0.00 | 0.40 | 0.40 | 93 | 1007.9 |
| 20260507024022 | 58 | 0 | 0.0 | 5.0 | 0.00 | 0.40 | 0.40 | 95 | 1008.0 |
| 20260507023522 | 58 | 0 | 1.0 | 5.0 | 0.00 | 0.40 | 0.40 | 95 | 1007.7 |
| 20260507023045 | 58 | 291 | 1.0 | 5.0 | 0.00 | 0.40 | 0.40 | 95 | 1007.7 |
| 20260507022523 | 58 | 326 | 0.0 | 5.0 | 0.00 | 0.40 | 0.40 | 95 | 1007.4 |
| 20260507022021 | 58 | 260 | 1.0 | 5.0 | 0.00 | 0.40 | 0.40 | 95 | 1007.1 |
| 20260507021543 | 58 | 271 | 1.0 | 7.0 | 0.00 | 0.40 | 0.40 | 95 | 1007.1 |
| 20260507021023 | 58 | 257 | 2.0 | 7.0 | 0.00 | 0.40 | 0.40 | 95 | 1007.1 |
| 20260507020523 | 58 | 281 | 0.0 | 4.0 | 0.00 | 0.40 | 0.40 | 95 | 1007.1 |
| 20260507020106 | 58 | 0 | 1.0 | 4.0 | 0.00 | 0.40 | 0.40 | 95 | 1007.2 |
| 20260507015522 | 58 | 256 | 1.0 | 4.0 | 0.00 | 0.40 | 0.40 | 95 | 1007.1 |
| 20260507015020 | 58 | 259 | 1.0 | 4.0 | 0.00 | 0.40 | 0.40 | 95 | 1007.2 |
| 20260507014547 | 58 | 270 | 1.0 | 5.0 | 0.00 | 0.40 | 0.40 | 95 | 1007.3 |
| 20260507014021 | 58 | 264 | 1.0 | 5.0 | 0.00 | 0.40 | 0.40 | 95 | 1007.3 |
| 20260507013521 | 58 | 259 | 2.0 | 5.0 | 0.00 | 0.40 | 0.40 | 95 | 1007.3 |
| 20260507013051 | 58 | 269 | 1.0 | 6.0 | 0.00 | 0.40 | 0.40 | 95 | 1007.4 |
| 20260507012523 | 58 | 285 | 2.0 | 6.0 | 0.00 | 0.40 | 0.40 | 95 | 1007.3 |
| 20260507012022 | 58 | 277 | 2.0 | 5.0 | 0.00 | 0.40 | 0.40 | 95 | 1007.4 |
| 20260507011538 | 58 | 266 | 1.0 | 5.0 | 0.00 | 0.40 | 0.40 | 95 | 1007.3 |
| 20260507011022 | 58 | 267 | 1.0 | 5.0 | 0.00 | 0.40 | 0.40 | 95 | 1007.3 |
| 20260507010521 | 58 | 271 | 2.0 | 5.0 | 0.00 | 0.40 | 0.40 | 95 | 1007.3 |
| 20260507010037 | 58 | 245 | 2.0 | 5.0 | 0.00 | 0.40 | 0.40 | 95 | 1007.4 |
| 20260507005521 | 58 | 292 | 1.0 | 4.0 | 0.00 | 0.40 | 0.40 | 95 | 1007.4 |
| 20260507005022 | 58 | 265 | 2.0 | 4.0 | 0.00 | 0.40 | 0.40 | 95 | 1007.4 |
| 20260507004553 | 58 | 266 | 1.0 | 6.0 | 0.00 | 0.40 | 0.40 | 95 | 1007.3 |
| 20260507004021 | 58 | 0 | 0.0 | 6.0 | 0.00 | 0.40 | 0.40 | 95 | 1007.2 |
| 20260507003520 | 58 | 259 | 1.0 | 6.0 | 0.00 | 0.40 | 0.40 | 95 | 1007.1 |
| 20260507003050 | 58 | 261 | 1.0 | 11.0 | 0.00 | 0.40 | 0.40 | 95 | 1007.3 |
| 20260507002522 | 58 | 255 | 2.0 | 11.0 | 0.00 | 0.40 | 0.40 | 95 | 1007.3 |
| 20260507002021 | 58 | 264 | 3.0 | 11.0 | 0.00 | 0.40 | 0.40 | 95 | 1007.1 |
| 20260507001546 | 58 | 245 | 2.0 | 5.0 | 0.00 | 0.40 | 0.40 | 95 | 1007.0 |
| 20260507001021 | 58 | 267 | 1.0 | 6.0 | 0.01 | 0.40 | 0.40 | 95 | 1007.0 |
| 20260507000521 | 58 | 278 | 2.0 | 6.0 | 0.01 | 0.40 | 0.40 | 95 | 1007.0 |
| 20260507000041 | 58 | 256 | 2.0 | 6.0 | 0.01 | 0.40 | 0.40 | 95 | 1006.9 |
| 20260506235521 | 58 | 269 | 1.0 | 5.0 | 0.01 | 0.40 | 0.40 | 95 | 1007.0 |
| 20260506235022 | 58 | 253 | 1.0 | 8.0 | 0.01 | 0.40 | 0.40 | 95 | 1007.0 |
| 20260506234544 | 58 | 0 | 1.0 | 8.0 | 0.01 | 0.40 | 0.40 | 95 | 1006.9 |
| 20260506234022 | 58 | 265 | 1.0 | 8.0 | 0.01 | 0.40 | 0.40 | 95 | 1007.0 |
| 20260506233521 | 58 | 262 | 1.0 | 5.0 | 0.01 | 0.40 | 0.40 | 95 | 1007.0 |
| 20260506233046 | 58 | 0 | 0.0 | 4.0 | 0.01 | 0.40 | 0.40 | 95 | 1007.0 |
| 20260506232522 | 58 | 256 | 1.0 | 4.0 | 0.01 | 0.40 | 0.40 | 95 | 1006.9 |
| 20260506232020 | 58 | 284 | 1.0 | 4.0 | 0.01 | 0.40 | 0.40 | 95 | 1007.0 |
| 20260506231543 | 58 | 278 | 0.0 | 6.0 | 0.00 | 0.39 | 0.39 | 95 | 1007.1 |
| 20260506231020 | 58 | 338 | 0.0 | 6.0 | 0.00 | 0.39 | 0.39 | 95 | 1007.1 |
| 20260506230523 | 58 | 274 | 1.0 | 6.0 | 0.00 | 0.39 | 0.39 | 95 | 1007.2 |
| 20260506230049 | 58 | 4 | 1.0 | 5.0 | 0.00 | 0.39 | 0.39 | 95 | 1007.3 |
| 20260506225523 | 58 | 273 | 1.0 | 5.0 | 0.00 | 0.39 | 0.39 | 95 | 1007.2 |
| 20260506225023 | 58 | 0 | 1.0 | 4.0 | 0.00 | 0.39 | 0.39 | 95 | 1007.3 |
| 20260506224537 | 58 | 0 | 1.0 | 6.0 | 0.00 | 0.39 | 0.39 | 95 | 1007.2 |
| 20260506224020 | 58 | 252 | 1.0 | 6.0 | 0.00 | 0.39 | 0.39 | 95 | 1007.3 |
| 20260506223520 | 59 | 0 | 0.0 | 5.0 | 0.01 | 0.39 | 0.39 | 95 | 1007.3 |
| 20260506223043 | 59 | 0 | 0.0 | 5.0 | 0.03 | 0.39 | 0.39 | 95 | 1007.4 |
| 20260506222520 | 59 | 257 | 1.0 | 5.0 | 0.04 | 0.39 | 0.39 | 95 | 1007.4 |
| 20260506222026 | 59 | 0 | 0.0 | 5.0 | 0.04 | 0.39 | 0.39 | 95 | 1007.5 |
| 20260506221548 | 59 | 336 | 1.0 | 5.0 | 0.05 | 0.39 | 0.39 | 95 | 1007.4 |
| 20260506221024 | 59 | 42 | 1.0 | 4.0 | 0.05 | 0.39 | 0.39 | 95 | 1007.4 |
| 20260506220521 | 59 | 299 | 0.0 | 4.0 | 0.06 | 0.39 | 0.39 | 95 | 1007.6 |
| 20260506220046 | 59 | 0 | 1.0 | 4.0 | 0.08 | 0.39 | 0.39 | 95 | 1007.6 |
| 20260506215522 | 59 | 276 | 0.0 | 2.0 | 0.10 | 0.39 | 0.39 | 95 | 1007.6 |
| 20260506215026 | 59 | 0 | 0.0 | 3.0 | 0.11 | 0.39 | 0.39 | 95 | 1007.7 |
| 20260506214542 | 59 | 83 | 1.0 | 3.0 | 0.12 | 0.39 | 0.39 | 95 | 1007.6 |
| 20260506214023 | 59 | 300 | 0.0 | 4.0 | 0.11 | 0.38 | 0.38 | 95 | 1007.6 |
| 20260506213520 | 59 | 328 | 0.0 | 8.0 | 0.11 | 0.37 | 0.37 | 95 | 1007.7 |
| 20260506213056 | 59 | 0 | 1.0 | 8.0 | 0.10 | 0.36 | 0.36 | 95 | 1007.8 |
| 20260506212521 | 59 | 255 | 1.0 | 8.0 | 0.09 | 0.35 | 0.35 | 95 | 1007.7 |
| 20260506212022 | 59 | 6 | 1.0 | 5.0 | 0.10 | 0.35 | 0.35 | 95 | 1007.8 |
| 20260506211538 | 59 | 289 | 0.0 | 5.0 | 0.11 | 0.34 | 0.34 | 95 | 1007.9 |
| 20260506211020 | 59 | 23 | 1.0 | 7.0 | 0.12 | 0.34 | 0.34 | 95 | 1007.8 |
| 20260506210524 | 60 | 0 | 1.0 | 7.0 | 0.12 | 0.33 | 0.33 | 95 | 1008.0 |
| 20260506210047 | 60 | 255 | 0.0 | 4.0 | 0.10 | 0.31 | 0.31 | 95 | 1007.8 |
| 20260506205522 | 60 | 300 | 0.0 | 3.0 | 0.09 | 0.29 | 0.29 | 94 | 1008.0 |
| 20260506205022 | 60 | 20 | 0.0 | 3.0 | 0.08 | 0.28 | 0.28 | 94 | 1008.0 |
| 20260506204543 | 60 | 275 | 0.0 | 5.0 | 0.07 | 0.27 | 0.27 | 94 | 1008.0 |
| 20260506204021 | 60 | 0 | 0.0 | 5.0 | 0.06 | 0.26 | 0.26 | 94 | 1008.2 |
| 20260506203522 | 60 | 271 | 0.0 | 2.0 | 0.06 | 0.26 | 0.26 | 94 | 1008.2 |
| 20260506203039 | 60 | 0 | 0.0 | 2.0 | 0.06 | 0.26 | 0.26 | 94 | 1008.1 |
| 20260506202523 | 60 | 287 | 0.0 | 4.0 | 0.05 | 0.25 | 0.25 | 94 | 1008.2 |
| 20260506202023 | 60 | 0 | 0.0 | 4.0 | 0.06 | 0.25 | 0.25 | 93 | 1008.1 |
| 20260506201541 | 61 | 260 | 0.0 | 4.0 | 0.04 | 0.23 | 0.23 | 93 | 1008.2 |
| 20260506201023 | 61 | 278 | 1.0 | 4.0 | 0.03 | 0.22 | 0.22 | 93 | 1008.3 |
| 20260506200522 | 61 | 262 | 1.0 | 5.0 | 0.03 | 0.21 | 0.21 | 93 | 1008.2 |
| 20260506200044 | 61 | 257 | 1.0 | 5.0 | 0.03 | 0.21 | 0.21 | 93 | 1008.3 |
| 20260506195522 | 61 | 272 | 0.0 | 2.0 | 0.03 | 0.20 | 0.20 | 94 | 1008.3 |
| 20260506195022 | 61 | 312 | 0.0 | 2.0 | 0.03 | 0.20 | 0.20 | 94 | 1008.2 |
| 20260506194547 | 61 | 0 | 0.0 | 1.0 | 0.04 | 0.20 | 0.20 | 94 | 1008.3 |
| 20260506194022 | 61 | 0 | 0.0 | 1.0 | 0.05 | 0.20 | 0.20 | 94 | 1008.1 |
| 20260506193522 | 61 | 0 | 0.0 | 2.0 | 0.05 | 0.20 | 0.20 | 94 | 1008.2 |
| 20260506193043 | 61 | 274 | 0.0 | 2.0 | 0.06 | 0.20 | 0.20 | 94 | 1008.3 |
| 20260506192522 | 61 | 276 | 0.0 | 2.0 | 0.07 | 0.20 | 0.20 | 94 | 1008.2 |
| 20260506192021 | 61 | 278 | 0.0 | 1.0 | 0.07 | 0.19 | 0.19 | 94 | 1008.1 |
| 20260506191542 | 61 | 0 | 0.0 | 3.0 | 0.07 | 0.19 | 0.19 | 93 | 1008.3 |
| 20260506191023 | 61 | 286 | 0.0 | 3.0 | 0.08 | 0.19 | 0.19 | 93 | 1008.6 |
| 20260506190520 | 61 | 0 | 0.0 | 1.0 | 0.08 | 0.18 | 0.18 | 93 | 1008.4 |
| 20260506190038 | 61 | 0 | 0.0 | 1.0 | 0.08 | 0.18 | 0.18 | 93 | 1008.6 |
| 20260506185524 | 61 | 0 | 0.0 | 2.0 | 0.08 | 0.17 | 0.17 | 93 | 1008.6 |
| 20260506185022 | 61 | 333 | 0.0 | 2.0 | 0.09 | 0.16 | 0.16 | 93 | 1008.7 |
| 20260506184551 | 61 | 257 | 0.0 | 2.0 | 0.11 | 0.16 | 0.16 | 92 | 1009.0 |
| 20260506184024 | 61 | 258 | 0.0 | 1.0 | 0.15 | 0.15 | 0.15 | 92 | 1009.1 |
| 20260506183520 | 61 | 0 | 0.0 | 2.0 | 0.15 | 0.15 | 0.15 | 92 | 1008.8 |
| 20260506183055 | 62 | 0 | 0.0 | 2.0 | 0.14 | 0.14 | 0.14 | 92 | 1009.3 |
| 20260506182522 | 62 | 283 | 0.0 | 1.0 | 0.13 | 0.13 | 0.13 | 91 | 1009.3 |
| 20260506182026 | 62 | 0 | 0.0 | 1.0 | 0.12 | 0.12 | 0.12 | 91 | 1009.1 |
| 20260506181611 | 62 | 284 | 0.0 | 1.0 | 0.11 | 0.11 | 0.11 | 90 | 1009.1 |
| 20260506181026 | 62 | 0 | 0.0 | 0.0 | 0.11 | 0.11 | 0.11 | 89 | 1009.1 |
| 20260506180523 | 63 | 0 | 0.0 | 1.0 | 0.10 | 0.10 | 0.10 | 88 | 1009.2 |
| 20260506180044 | 63 | 284 | 0.0 | 5.0 | 0.10 | 0.10 | 0.10 | 87 | 1009.2 |
| 20260506175523 | 64 | 283 | 0.0 | 5.0 | 0.09 | 0.09 | 0.09 | 84 | 1009.3 |
| 20260506175022 | 65 | 0 | 0.0 | 6.0 | 0.07 | 0.07 | 0.07 | 81 | 1009.6 |
| 20260506174541 | 67 | 283 | 0.0 | 6.0 | 0.05 | 0.05 | 0.05 | 76 | 1009.4 |
| 20260506174022 | 69 | 265 | 2.0 | 6.0 | 0.00 | 0.00 | 0.00 | 67 | 1009.2 |
| 20260506173526 | 70 | 0 | 1.0 | 7.0 | 0.00 | 0.00 | 0.00 | 63 | 1008.8 |
| 20260506173054 | 71 | 270 | 2.0 | 15.0 | 0.00 | 0.00 | 0.00 | 60 | 1008.6 |
| 20260506172521 | 71 | 257 | 3.0 | 15.0 | 0.00 | 0.00 | 0.00 | 60 | 1008.6 |
| 20260506172022 | 71 | 279 | 2.0 | 9.0 | 0.00 | 0.00 | 0.00 | 60 | 1008.7 |
| 20260506171546 | 71 | 287 | 3.0 | 12.0 | 0.00 | 0.00 | 0.00 | 60 | 1008.8 |
| 20260506171021 | 71 | 226 | 5.0 | 12.0 | 0.00 | 0.00 | 0.00 | 60 | 1009.0 |
| 20260506170522 | 71 | 252 | 3.0 | 9.0 | 0.00 | 0.00 | 0.00 | 60 | 1009.0 |
| 20260506170048 | 71 | 356 | 2.0 | 8.0 | 0.00 | 0.00 | 0.00 | 61 | 1009.0 |
| 20260506165522 | 71 | 255 | 2.0 | 7.0 | 0.00 | 0.00 | 0.00 | 61 | 1009.2 |
| 20260506165025 | 71 | 258 | 2.0 | 7.0 | 0.00 | 0.00 | 0.00 | 60 | 1009.1 |
| 20260506164539 | 71 | 256 | 1.0 | 7.0 | 0.00 | 0.00 | 0.00 | 63 | 1009.2 |
| 20260506164021 | 70 | 0 | 1.0 | 6.0 | 0.00 | 0.00 | 0.00 | 63 | 1009.3 |
| 20260506163523 | 70 | 100 | 2.0 | 6.0 | 0.00 | 0.00 | 0.00 | 63 | 1009.4 |
| 20260506163047 | 70 | 263 | 2.0 | 6.0 | 0.00 | 0.00 | 0.00 | 64 | 1009.5 |
| 20260506162522 | 69 | 35 | 1.0 | 5.0 | 0.00 | 0.00 | 0.00 | 64 | 1009.7 |
| 20260506162022 | 69 | 2 | 0.0 | 7.0 | 0.00 | 0.00 | 0.00 | 65 | 1009.6 |
| 20260506161548 | 69 | 286 | 2.0 | 9.0 | 0.00 | 0.00 | 0.00 | 64 | 1009.8 |
| 20260506161022 | 69 | 0 | 3.0 | 9.0 | 0.00 | 0.00 | 0.00 | 65 | 1009.8 |
| 20260506160522 | 69 | 271 | 1.0 | 9.0 | 0.00 | 0.00 | 0.00 | 66 | 1010.1 |
| 20260506160053 | 69 | 255 | 3.0 | 10.0 | 0.00 | 0.00 | 0.00 | 65 | 1010.3 |
| 20260506155522 | 69 | 266 | 5.0 | 10.0 | 0.00 | 0.00 | 0.00 | 65 | 1010.5 |
| 20260506155022 | 68 | 284 | 2.0 | 7.0 | 0.00 | 0.00 | 0.00 | 66 | 1010.6 |
| 20260506154546 | 68 | 78 | 2.0 | 7.0 | 0.00 | 0.00 | 0.00 | 66 | 1010.6 |
| 20260506154023 | 69 | 221 | 2.0 | 8.0 | 0.00 | 0.00 | 0.00 | 66 | 1010.7 |
| 20260506153524 | 69 | 279 | 2.0 | 9.0 | 0.00 | 0.00 | 0.00 | 66 | 1010.8 |
| 20260506153059 | 69 | 258 | 3.0 | 9.0 | 0.00 | 0.00 | 0.00 | 65 | 1010.9 |
| 20260506152522 | 69 | 277 | 1.0 | 8.0 | 0.00 | 0.00 | 0.00 | 66 | 1010.9 |
| 20260506152023 | 69 | 281 | 3.0 | 8.0 | 0.00 | 0.00 | 0.00 | 65 | 1010.9 |
| 20260506151543 | 69 | 88 | 2.0 | 8.0 | 0.00 | 0.00 | 0.00 | 66 | 1011.0 |
| 20260506151023 | 69 | 291 | 4.0 | 8.0 | 0.00 | 0.00 | 0.00 | 66 | 1011.0 |
| 20260506150521 | 69 | 254 | 2.0 | 6.0 | 0.00 | 0.00 | 0.00 | 67 | 1010.8 |
| 20260506150057 | 69 | 305 | 2.0 | 8.0 | 0.00 | 0.00 | 0.00 | 67 | 1010.8 |
| 20260506145523 | 68 | 250 | 2.0 | 8.0 | 0.00 | 0.00 | 0.00 | 68 | 1011.0 |
| 20260506145023 | 68 | 284 | 3.0 | 6.0 | 0.00 | 0.00 | 0.00 | 68 | 1011.0 |
| 20260506144554 | 68 | 79 | 1.0 | 5.0 | 0.00 | 0.00 | 0.00 | 69 | 1010.9 |
| 20260506144021 | 68 | 269 | 1.0 | 4.0 | 0.00 | 0.00 | 0.00 | 69 | 1010.8 |
| 20260506143522 | 67 | 255 | 1.0 | 8.0 | 0.00 | 0.00 | 0.00 | 70 | 1010.9 |
| 20260506143044 | 67 | 262 | 1.0 | 8.0 | 0.00 | 0.00 | 0.00 | 72 | 1010.8 |
| 20260506142523 | 67 | 271 | 3.0 | 8.0 | 0.00 | 0.00 | 0.00 | 71 | 1010.9 |
| 20260506142022 | 66 | 328 | 1.0 | 6.0 | 0.00 | 0.00 | 0.00 | 72 | 1010.8 |
| 20260506141538 | 66 | 275 | 2.0 | 8.0 | 0.00 | 0.00 | 0.00 | 72 | 1010.7 |
| 20260506141023 | 66 | 316 | 2.0 | 8.0 | 0.00 | 0.00 | 0.00 | 72 | 1010.6 |
| 20260506140523 | 66 | 251 | 2.0 | 8.0 | 0.00 | 0.00 | 0.00 | 73 | 1010.7 |
| 20260506140039 | 65 | 0 | 1.0 | 8.0 | 0.00 | 0.00 | 0.00 | 74 | 1010.7 |
| 20260506135522 | 65 | 269 | 2.0 | 8.0 | 0.00 | 0.00 | 0.00 | 74 | 1010.8 |
| 20260506135020 | 65 | 0 | 1.0 | 6.0 | 0.00 | 0.00 | 0.00 | 74 | 1010.8 |
| 20260506134536 | 64 | 285 | 0.0 | 6.0 | 0.00 | 0.00 | 0.00 | 75 | 1010.7 |
| 20260506134020 | 64 | 274 | 1.0 | 8.0 | 0.00 | 0.00 | 0.00 | 76 | 1010.8 |
| 20260506133522 | 64 | 257 | 2.0 | 8.0 | 0.00 | 0.00 | 0.00 | 75 | 1010.9 |
| 20260506133047 | 64 | 250 | 2.0 | 6.0 | 0.00 | 0.00 | 0.00 | 75 | 1011.0 |
| 20260506132522 | 64 | 248 | 2.0 | 7.0 | 0.00 | 0.00 | 0.00 | 75 | 1011.2 |
| 20260506132022 | 64 | 315 | 2.0 | 7.0 | 0.00 | 0.00 | 0.00 | 75 | 1011.1 |
| 20260506131541 | 64 | 83 | 0.0 | 7.0 | 0.00 | 0.00 | 0.00 | 75 | 1011.2 |
| 20260506131024 | 64 | 265 | 2.0 | 7.0 | 0.00 | 0.00 | 0.00 | 75 | 1011.1 |
| 20260506130523 | 64 | 297 | 2.0 | 7.0 | 0.00 | 0.00 | 0.00 | 75 | 1011.2 |
| 20260506130039 | 64 | 80 | 1.0 | 8.0 | 0.00 | 0.00 | 0.00 | 75 | 1011.1 |
| 20260506125522 | 64 | 302 | 1.0 | 8.0 | 0.00 | 0.00 | 0.00 | 75 | 1011.2 |
| 20260506125022 | 64 | 258 | 3.0 | 8.0 | 0.00 | 0.00 | 0.00 | 75 | 1011.2 |
| 20260506124539 | 64 | 264 | 1.0 | 8.0 | 0.00 | 0.00 | 0.00 | 76 | 1011.2 |
| 20260506124023 | 63 | 278 | 2.0 | 11.0 | 0.00 | 0.00 | 0.00 | 76 | 1011.1 |
| 20260506123523 | 63 | 274 | 2.0 | 11.0 | 0.00 | 0.00 | 0.00 | 76 | 1011.0 |
| 20260506123038 | 63 | 285 | 3.0 | 7.0 | 0.00 | 0.00 | 0.00 | 76 | 1010.9 |
| 20260506122523 | 63 | 248 | 2.0 | 7.0 | 0.00 | 0.00 | 0.00 | 76 | 1010.9 |
| 20260506122024 | 63 | 276 | 1.0 | 8.0 | 0.00 | 0.00 | 0.00 | 76 | 1011.1 |
| 20260506121543 | 63 | 278 | 1.0 | 8.0 | 0.00 | 0.00 | 0.00 | 76 | 1011.3 |
| 20260506121022 | 63 | 272 | 2.0 | 8.0 | 0.00 | 0.00 | 0.00 | 77 | 1011.2 |
| 20260506120522 | 62 | 8 | 1.0 | 6.0 | 0.00 | 0.00 | 0.00 | 77 | 1011.3 |
| 20260506120045 | 62 | 288 | 1.0 | 5.0 | 0.00 | 0.00 | 0.00 | 78 | 1011.3 |
| 20260506115521 | 61 | 276 | 1.0 | 5.0 | 0.00 | 0.00 | 0.00 | 78 | 1011.5 |
| 20260506115022 | 61 | 0 | 1.0 | 5.0 | 0.00 | 0.00 | 0.00 | 78 | 1011.6 |
| 20260506114539 | 61 | 105 | 1.0 | 6.0 | 0.00 | 0.00 | 0.00 | 78 | 1011.5 |
| 20260506114023 | 61 | 255 | 1.0 | 6.0 | 0.00 | 0.00 | 0.00 | 78 | 1011.7 |
| 20260506113522 | 61 | 276 | 1.0 | 6.0 | 0.00 | 0.00 | 0.00 | 79 | 1011.5 |
| 20260506113046 | 61 | 290 | 1.0 | 4.0 | 0.00 | 0.00 | 0.00 | 79 | 1011.6 |
| 20260506112522 | 61 | 0 | 1.0 | 4.0 | 0.00 | 0.00 | 0.00 | 79 | 1011.7 |
| 20260506112022 | 61 | 0 | 0.0 | 4.0 | 0.00 | 0.00 | 0.00 | 79 | 1011.8 |
| 20260506111545 | 61 | 265 | 0.0 | 4.0 | 0.00 | 0.00 | 0.00 | 79 | 1011.7 |
| 20260506111020 | 60 | 25 | 1.0 | 4.0 | 0.00 | 0.00 | 0.00 | 79 | 1011.7 |
| 20260506110520 | 60 | 269 | 2.0 | 6.0 | 0.00 | 0.00 | 0.00 | 79 | 1011.8 |
| 20260506110043 | 60 | 0 | 0.0 | 6.0 | 0.00 | 0.00 | 0.00 | 80 | 1011.7 |
| 20260506105522 | 60 | 0 | 0.0 | 5.0 | 0.00 | 0.00 | 0.00 | 80 | 1011.7 |
| 20260506105022 | 60 | 285 | 0.0 | 7.0 | 0.00 | 0.00 | 0.00 | 80 | 1011.7 |
| 20260506104538 | 60 | 290 | 0.0 | 7.0 | 0.00 | 0.00 | 0.00 | 80 | 1011.9 |
| 20260506104023 | 59 | 276 | 1.0 | 7.0 | 0.00 | 0.00 | 0.00 | 80 | 1011.9 |
| 20260506103525 | 59 | 335 | 0.0 | 3.0 | 0.00 | 0.00 | 0.00 | 80 | 1011.8 |
| 20260506103050 | 59 | 144 | 0.0 | 3.0 | 0.00 | 0.00 | 0.00 | 80 | 1011.6 |
| 20260506102523 | 60 | 0 | 0.0 | 3.0 | 0.00 | 0.00 | 0.00 | 80 | 1011.6 |
| 20260506102021 | 59 | 0 | 0.0 | 2.0 | 0.00 | 0.00 | 0.00 | 80 | 1011.6 |
| 20260506101538 | 59 | 291 | 0.0 | 3.0 | 0.00 | 0.00 | 0.00 | 80 | 1011.7 |
| 20260506101023 | 59 | 0 | 0.0 | 3.0 | 0.00 | 0.00 | 0.00 | 80 | 1011.6 |
| 20260506100523 | 59 | 0 | 0.0 | 3.0 | 0.00 | 0.00 | 0.00 | 80 | 1011.7 |
| 20260506100039 | 59 | 0 | 0.0 | 3.0 | 0.00 | 0.00 | 0.00 | 80 | 1011.8 |
| 20260506095523 | 59 | 0 | 0.0 | 3.0 | 0.00 | 0.00 | 0.00 | 79 | 1011.7 |
| 20260506095021 | 59 | 336 | 1.0 | 5.0 | 0.00 | 0.00 | 0.00 | 79 | 1011.6 |
| 20260506094542 | 59 | 324 | 0.0 | 5.0 | 0.00 | 0.00 | 0.00 | 79 | 1011.6 |
| 20260506094022 | 59 | 266 | 0.0 | 5.0 | 0.00 | 0.00 | 0.00 | 79 | 1011.5 |
| 20260506093522 | 59 | 250 | 0.0 | 2.0 | 0.00 | 0.00 | 0.00 | 79 | 1011.3 |
| 20260506093038 | 59 | 302 | 0.0 | 3.0 | 0.00 | 0.00 | 0.00 | 79 | 1011.6 |
| 20260506092523 | 60 | 0 | 0.0 | 3.0 | 0.00 | 0.00 | 0.00 | 78 | 1011.7 |
| 20260506092023 | 60 | 317 | 0.0 | 2.0 | 0.00 | 0.00 | 0.00 | 78 | 1011.6 |
| 20260506091546 | 60 | 304 | 0.0 | 4.0 | 0.00 | 0.00 | 0.00 | 78 | 1011.5 |
| 20260506091023 | 60 | 0 | 0.0 | 4.0 | 0.00 | 0.00 | 0.00 | 77 | 1011.6 |
| 20260506090522 | 60 | 0 | 1.0 | 4.0 | 0.00 | 0.00 | 0.00 | 77 | 1011.5 |
| 20260506090038 | 60 | 311 | 0.0 | 2.0 | 0.00 | 0.00 | 0.00 | 77 | 1011.5 |
| 20260506085524 | 60 | 0 | 0.0 | 5.0 | 0.00 | 0.00 | 0.00 | 77 | 1011.5 |
| 20260506085022 | 60 | 289 | 0.0 | 5.0 | 0.00 | 0.00 | 0.00 | 76 | 1011.6 |
| 20260506084548 | 61 | 277 | 0.0 | 5.0 | 0.00 | 0.00 | 0.00 | 76 | 1011.5 |
| 20260506084020 | 61 | 252 | 0.0 | 4.0 | 0.00 | 0.00 | 0.00 | 76 | 1011.5 |
| 20260506083523 | 61 | 0 | 1.0 | 3.0 | 0.00 | 0.00 | 0.00 | 75 | 1011.5 |
| 20260506083043 | 61 | 0 | 0.0 | 4.0 | 0.00 | 0.00 | 0.00 | 75 | 1011.5 |
| 20260506082519 | 61 | 35 | 1.0 | 5.0 | 0.00 | 0.00 | 0.00 | 75 | 1011.5 |
| 20260506082023 | 61 | 263 | 1.0 | 5.0 | 0.00 | 0.00 | 0.00 | 75 | 1011.4 |
| 20260506081538 | 61 | 0 | 1.0 | 5.0 | 0.00 | 0.00 | 0.00 | 74 | 1011.5 |
| 20260506081026 | 61 | 305 | 0.0 | 3.0 | 0.00 | 0.00 | 0.00 | 74 | 1011.4 |
| 20260506080521 | 61 | 294 | 0.0 | 3.0 | 0.00 | 0.00 | 0.00 | 74 | 1011.4 |
| 20260506073520 | 61 | 256 | 0.0 | 3.0 | 0.00 | 0.00 | 0.00 | 72 | 1011.3 |
| 20260506073045 | 61 | 0 | 0.0 | 2.0 | 0.00 | 0.00 | 0.00 | 72 | 1011.2 |
| 20260506072519 | 62 | 0 | 0.0 | 2.0 | 0.00 | 0.00 | 0.00 | 71 | 1011.2 |
| 20260506072023 | 62 | 255 | 0.0 | 2.0 | 0.00 | 0.00 | 0.00 | 71 | 1011.3 |
| 20260506071542 | 62 | 0 | 0.0 | 5.0 | 0.00 | 0.00 | 0.00 | 71 | 1011.2 |
| 20260506071023 | 62 | 0 | 1.0 | 5.0 | 0.00 | 0.00 | 0.00 | 71 | 1011.0 |
| 20260506070523 | 62 | 94 | 0.0 | 3.0 | 0.00 | 0.00 | 0.00 | 70 | 1011.1 |